Lid_Strength_Index
1 -0 -1 -1 -1 -1 -1 -1 -1 -2 -1 -1 -1 -2 -2 -2 -2 -2 -2 -1 -1 -1 -1 -1 -1 -1 -2 -2 -2 -2 -2 -2 -1 -1 -1 -1 -1 -2 -1 -1 -1 -1 -1
0 -0 -1 -1 -1 -1 -1 -1 -2 -2 -2 -2 -2 -1 -2 -2 -2 -2 -2 -2 -1 -1 -1 -2 -2 -1 -2 -2 -2 -2 -1 -1 -1 -1 -1 -2 -2 -1 -1 -1 -1 -1 -1
0 -0 -0 -1 -1 -2 -1 -1 -1 -1 -1 -1 -1 -2 -2 -2 -2 -2 -2 -2 -2 -1 -1 -2 -2 -1 -2 -2 -1 -1 -1 -1 -1 -1 -1 -0 0 -1 -1 -1 -1 -1 -1
0 -0 -0 -1 -1 -2 -1 -1 -1 -1 -1 -1 -1 -2 -2 -2 -2 -2 -2 -2 -2 -1 -1 -1 -2 -1 -1 -1 -1 -1 -1 -1 -1 -2 -0 -0 -0 -1 -1 -1 -1 -1 -1
0 -0 -0 -1 -1 -1 -1 -1 -1 -1 -1 -1 -1 -2 -2 -2 -2 -2 -2 -2 -2 -1 -1 -2 -1 -1 -1 -1 -1 -2 -1 -1 -1 -1 0 2 1 -1 -1 -1 -1 -1 -1
0 -0 -0 -1 -1 -1 -1 -1 -2 -2 -2 -2 -2 -2 -2 -2 -2 -2 -2 -2 -2 -2 -2 -2 -1 -1 -1 -1 -1 -1 -1 -1 -2 -0 -0 -0 0 -1 -1 -1 -1 -1 -1
1 -0 -0 -1 -1 -1 -2 -2 -2 -2 -2 -2 -2 -2 -2 -2 -2 -2 -2 -2 -2 -2 -2 -2 -2 -1 -1 -1 -1 -1 -1 -2 1 1 1 1 0 -1 -1 -1 -1 -1 -1
1 -0 -0 -1 -1 -1 -2 -2 -2 -2 -2 -2 -2 -2 -2 -2 -2 -1 -2 -2 -2 -2 -2 -1 -1 -1 -1 -1 -1 -1 -1 -2 0 0 0 -0 -2 -1 -1 -1 -1 -1 -1
1 0 -0 -0 -0 -1 -1 -1 -2 -2 -2 -2 -2 -2 -2 -2 -2 -1 -1 -2 -2 -1 -1 -1 -1 -1 -1 -1 -1 -1 -2 -1 0 -0 0 -0 -2 -1 -1 -1 -1 -1 -1
1 1 0 -0 -0 -0 -0 -1 -1 -2 -2 -2 -2 -1 -1 -1 -1 -2 -2 -2 -1 -1 -1 -1 -1 -1 -1 -1 -1 -2 -2 -1 -0 1 1 -1 -2 -1 -1 -1 -1 -2 -2
1 1 0 0 0 -0 -0 -0 -1 -1 -1 -1 -1 -1 -0 0 -0 -0 -1 -1 -2 -1 -1 -1 -1 -1 -1 -1 -2 -2 -1 0 1 2 2 -2 -2 -1 -1 -1 -2 -2 -2
2 1 1 0 0 0 -0 -0 0 -0 0 0 0 0 0 1 -0 -0 -0 -1 -2 -2 -2 -1 -1 -2 -1 0 0 -1 2 4 3 3 3 -1 -0 -0 -1 -2 -1 -1 -1
3 2 1 0 0 0 0 -0 -0 -0 0 0 1 0 0 1 0 1 1 0 1 0 0 -0 -0 0 3 1 2 6 6 7 5 5 2 0 0 -0 -2 -0 0 0 0
3 2 1 1 1 1 0 0 -0 -0 0 0 1 0 1 2 2 3 2 1 1 1 1 1 2 4 4 5 7 8 8 9 8 6 4 1 1 0 -0 1 1 2 2
3 2 2 1 1 1 0 0 0 0 -0 -0 1 0 1 2 3 3 2 2 2 2 2 3 5 5 6 8 9 9 9 10 8 7 5 0 0 1 1 2 3 3 3
3 2 2 1 1 1 1 1 0 0 -0 0 1 1 1 2 3 2 2 2 3 4 4 5 5 7 9 9 10 10 11 11 10 8 6 4 2 2 3 4 5 5 5
6 2 2 2 1 1 1 1 1 0 0 1 0 1 2 1 2 2 3 4 5 5 6 7 8 9 10 10 11 11 11 11 11 10 7 7 6 4 5 6 6 6 6
4 4 2 1 2 1 1 1 1 1 1 1 1 1 2 1 1 3 4 4 5 5 7 8 9 11 11 12 12 12 12 11 11 11 9 9 9 9 8 8 8 7 8
5 4 4 2 2 1 1 1 1 1 2 1 1 1 1 1 2 3 5 6 6 8 9 9 11 11 12 13 12 12 12 11 12 11 12 12 11 10 11 9 8 8 8
4 4 4 3 2 1 1 1 1 2 2 1 1 1 1 2 4 5 7 7 8 9 10 10 11 12 12 13 12 12 12 11 12 12 12 11 12 12 12 13 13 13 9
5 4 4 4 5 4 1 2 2 2 1 3 1 1 1 3 5 7 7 8 9 10 11 11 12 12 13 13 13 13 12 12 12 12 12 12 12 12 13 14 14 14 14
5 5 4 4 3 4 3 1 2 2 4 3 2 1 2 4 6 8 8 9 10 11 12 12 11 12 12 13 14 14 15 14 13 12 12 12 13 13 13 13 14 14 14
6 5 4 4 4 4 4 5 6 7 7 7 8 6 7 7 8 9 9 10 12 12 12 12 11 11 13 13 14 13 15 15 16 14 13 13 14 14 14 13 13 13 14
7 5 4 3 3 3 2 3 4 4 5 7 9 9 9 9 8 8 9 10 11 11 13 12 12 12 12 14 13 13 14 15 16 17 15 14 14 14 14 14 14 14 14
7 7 5 4 3 3 2 1 2 4 8 9 10 10 10 9 9 9 9 10 10 10 12 13 13 13 13 13 14 14 15 14 15 17 17 15 14 14 14 14 15 15 14
8 8 6 4 3 3 2 2 2 6 9 9 10 10 10 10 9 10 10 10 11 11 11 12 13 14 14 14 14 14 14 15 16 16 17 17 17 16 15 15 15 15 15